TIME,DELAY(SENSOR),PRES,OXYGEN,RAWTEMP,T(OPTODE),TCPHASE,FLUOR,BETA(BETA700),BETA(BETA412),BETA(BETA440),CDOM,C(CSC),ED(ED411.90),ED(ED443.80),ED(ED489.40),ED(ED554.70),LU(LU412.20),LU(LU443.80),LU(LU489.40),LU(LU555.00),COMP,TILTX,TILTY,CHECK
1354918101,5805,852.2700195312500000,164.2866058349609400,435.7630920410156000,9.5097246170043950,39.2328910827636700,52,100,53,56,65,12966,2146966427,2147517476,2147287881,2147504146,2147089965,2146925449,2147706916,2147124178,2904,-1,9,55291
1354921697,5805,964.7500000000000000,196.1071014404297000,500.5873107910156000,7.5112709999084470,38.1518516540527340,52,101,53,59,65,12961,2146964105,2147517942,2147290102,2147517522,2147091483,2146924333,2147718619,2147125988,1260,-1,9,40866
1354925297,5805,980.5499877929688000,208.7897949218750000,509.3317871093750000,7.2396898269653320,37.5314598083496100,52,100,53,56,66,12962,2146961883,2147518372,2147294336,2147517952,2147088640,2146917760,2147718774,2147122870,3537,-1,9,29625
1354928897,5804,977.4000244140625000,208.0455017089843800,509.4426879882812500,7.2362442016601560,37.5771713256835940,52,99,53,57,65,12960,2146962313,2147518281,2147294528,2147518656,2147087990,2146924726,2147718738,2147122194,3433,-1,8,31593
1354932497,5807,980.8800048828125000,210.8973999023437500,512.4213256835938000,7.1436109542846680,37.4617996215820300,52,103,52,58,66,12956,2146961618,2147519360,2147294939,2147512731,2147093211,2146918500,2147720420,2147123218,25,-1,8,29481
1354936097,5807,978.6699829101562000,211.4678039550781200,516.2142944335938000,7.0255670547485350,37.4951095581054700,52,101,53,57,65,12952,2146963931,2147517184,2147296475,2147520420,2147092763,2146923666,2147720228,2147124626,3458,-1,8,18687
1354939697,5806,982.6400146484375000,212.9871063232422000,516.4899291992188000,7.0169868469238280,37.4120788574218750,51,99,53,58,65,12950,2146960457,2147521526,2147297517,2147521014,2147092233,2146920731,2147721078,2147121636,9,-1,8,8612
1354943297,5804,982.3099975585938000,216.3386993408203000,517.8372802734375000,6.9750227928161620,37.2428092956543000,52,99,54,58,66,12950,2146962221,2147517056,2147294966,2147517092,2147091364,2146920155,2147722102,2147124096,3089,-1,8,42614
1354946897,5807,984.0100097656250000,216.2776947021484400,518.3076782226562000,6.9603700637817380,37.2556114196777340,51,98,53,58,66,12950,2146962916,2147520118,2147295460,2147517440,2147093769,2146925988,2147721197,2147121792,354,-1,8,18412
1354950497,5807,985.5300292968750000,216.7055969238281200,518.2484130859375000,6.9622192382812500,37.2299804687500000,52,98,53,58,66,12951,2146965677,2147518363,2147297179,2147519972,2147093686,2146922870,2147718244,2147122944,3340,-1,9,60980
1354954097,5806,988.2700195312500000,216.3491058349609400,517.5164184570312000,6.9850192070007320,37.2367401123046900,52,127,54,57,66,12948,2146962496,2147519689,2147296228,2147519689,2147087661,2146923794,2147718336,2147120914,3554,-1,8,51894
1354957697,5802,986.4000244140625000,217.2577056884765600,518.7916259765625000,6.9452991485595700,37.2078895568847660,52,102,53,58,66,12951,2146963008,2147518857,2147294875,2147516269,2147095296,2146924196,2147719780,2147123483,3021,-1,8,4221
1354961297,5805,990.1400146484375000,217.0554962158203000,518.6008911132812000,6.9512391090393070,37.2163581848144500,52,101,53,59,65,12949,2146960758,2147517074,2147294363,2147521270,2147089024,2146921718,2147720036,2147123885,3063,-1,8,24304
1354964897,5804,988.5200195312500000,217.1878967285156200,518.7238159179688000,6.9474091529846190,37.2111396789550800,52,101,53,58,66,12946,2146965321,2147521773,2147297810,2147522294,2147091117,2146923044,2147723081,2147119597,2945,-1,8,64187
1354968497,5806,990.9400024414062000,216.4351959228515600,517.8425292968750000,6.9748611450195310,37.2375717163085940,52,102,53,57,65,12949,2146964891,2147518646,2147295314,2147520201,2147093595,2146925741,2147720905,2147121956,680,-1,8,26476
1354972097,5809,988.4799804687500000,217.5469970703125000,519.2532958984375000,6.9309139251708980,37.2000007629394500,51,100,53,57,65,12945,2146962304,2147519561,2147300114,2147523181,2147092141,2146921536,2147720676,2147122742,37,-1,8,65105
1354975697,5808,997.7800292968750000,214.3638000488281200,516.2498168945312000,7.0244607925415040,37.3286399841308600,51,100,53,57,66,12939,2146962285,2147517476,2147295177,2147521728,2147090020,2146916196,2147720292,2147121334,743,-1,8,33910
1354979297,5807,992.3800048828125000,213.4806060791015600,517.7918701171875000,6.9764389991760250,37.4061813354492200,51,103,53,56,65,12941,2146961216,2147517650,2147296502,2147518564,2147091949,2146920000,2147723364,2147124589,3512,-1,8,44285
1354982897,5805,991.8099975585938000,216.4360961914062500,518.3931884765625000,6.9577078819274900,37.2478294372558600,52,99,53,57,66,12935,2146963593,2147519131,2147293979,2147521161,2147091072,2146925586,2147725805,2147120886,3556,-1,9,1214
1354986497,5808,989.2600097656250000,217.6986999511718800,520.3693237304688000,6.8961391448974610,37.2108001708984400,51,99,53,58,66,12931,2146964452,2147517430,2147293376,2147519981,2147091712,2146922541,2147724141,2147122377,3570,-1,9,10061
1354990097,5803,988.0900268554688000,217.4185028076172000,520.2183837890625000,6.9008412361145020,37.2244491577148440,52,100,54,58,65,12934,2146961453,2147517156,2147295451,2147517211,2147090294,2146924425,2147724854,2147120237,3366,-1,9,32228
1354993697,5807,990.2899780273438000,216.8027038574218800,520.3265991210938000,6.8974690437316895,37.2611503601074200,52,102,53,57,66,12879,2146960301,2147517595,2147293677,2147519826,2147092315,2146924827,2147719030,2147119963,111,0,8,11741
1354997297,5807,988.2299804687500000,217.2044067382812500,520.6685791015625000,6.8868079185485840,37.2436790466308600,52,102,52,57,66,12875,2146962660,2147525485,2147296265,2147519817,2147091885,2146921435,2147720237,2147121051,3227,-1,9,45839
1355000897,5758,990.1300048828125000,216.9319000244140600,520.8270263671875000,6.8818740844726560,37.2625312805175800,51,101,53,57,66,12879,2146962386,2147517604,2147296100,2147518555,2147089161,2146920740,2147723035,2147121956,115,-1,8,11340
1355004497,5809,998.1099853515625000,217.2425994873047000,519.3272094726562000,6.9286098480224610,37.2180290222168000,51,101,54,58,66,12878,2146963812,2147516534,2147295972,2147525504,2147091062,2146918921,2147722953,2147120210,28,-1,8,51269
1355008097,5807,991.5399780273438000,216.5359039306640600,520.3560180664062000,6.8965511322021480,37.2771415710449200,52,99,53,57,65,12860,2146961773,2147518546,2147294537,2147520676,2147093238,2146914285,2147719753,2147124205,167,-1,8,27767
1355011697,5805,992.5100097656250000,218.6475067138672000,520.4644165039062000,6.8931751251220700,37.1588706970214840,52,100,53,58,66,12860,2146960310,2147513801,2147297600,2147521234,2147092141,2146924086,2147718500,2147124342,3272,-1,8,19012
1355015297,5803,987.4400024414062000,217.6204071044922000,520.9105224609375000,6.8792719841003420,37.2247810363769500,52,100,52,56,65,12856,2146964406,2147515922,2147296320,2147517668,2147092224,2146919972,2147724928,2147123291,3155,-1,8,13189
1355018897,5806,988.3200073242188000,219.2814025878906200,521.4608764648438000,6.8621129989624020,37.1408691406250000,51,100,53,56,66,12858,2146962706,2147517458,2147298624,2147522989,2147091209,2146926016,2147721024,2147121444,3374,-1,8,51055
1355022497,5805,992.1599731445312000,219.2306976318359400,520.8806762695312000,6.8801999092102050,37.1333618164062500,52,104,53,57,66,12858,2146958811,2147517449,2147294061,2147520237,2147092434,2146926427,2147722212,2147120502,3278,-1,8,64822
1355026097,5804,992.5300292968750000,217.6224975585937500,520.8912963867188000,6.8798689842224120,37.2245292663574200,51,100,52,57,64,12861,2146962221,2147516306,2147297517,2147517458,2147089490,2146922212,2147726966,2147120731,3363,-1,8,32337
1355029697,5805,994.4199829101562000,219.2386016845703000,521.1627807617188000,6.8714051246643070,37.1376991271972660,52,100,54,57,65,12856,2146962934,2147517641,2147292772,2147518957,2147091392,2146922843,2147721636,2147121435,3293,-1,8,29736
1355033297,5806,994.7800292968750000,219.1945953369140600,521.3917846679688000,6.8642678260803220,37.1449394226074200,52,100,52,58,65,12857,2146962733,2147520384,2147296640,2147518144,2147094692,2146921718,2147724068,2147120704,3529,-1,8,16931
1355036897,5806,997.4299926757812000,218.8130035400390600,520.4454956054688000,6.8937630653381350,37.1490898132324200,52,98,53,57,65,12857,2146965686,2147519506,2147295606,2147521938,2147091318,2146921728,2147722916,2147121042,3046,-1,8,40710
1355040497,5806,991.3599853515625000,218.4337005615234400,520.8494873046875000,6.8811721801757810,37.1782684326171900,52,100,53,56,65,12857,2146957028,2147518153,2147296850,2147519597,2147091008,2146918418,2147721581,2147120768,485,-1,8,49574
1355044097,5805,996.4299926757812000,218.9183044433593800,520.5623779296875000,6.8901190757751465,37.1456108093261700,52,99,53,57,65,12856,2146963931,2147517302,2147295762,2147520640,2147093412,2146920402,2147723894,2147120237,3560,-1,9,31294
1355047697,5807,998.0499877929688000,218.4226074218750000,520.5156250000000000,6.8915767669677730,37.1722984313964840,51,99,53,57,65,12854,2146964233,2147519515,2147293092,2147521664,2147092123,2146918994,2147724361,2147121298,120,-1,8,41708
1355051297,5808,997.2500000000000000,218.4832000732422000,520.4697265625000000,6.8930101394653320,37.1679382324218750,52,100,54,57,65,12853,2146961920,2147515227,2147294418,2147521554,2147094774,2146921225,2147716150,2147121819,3575,-1,8,6051
1355054897,5806,998.2899780273438000,218.7991027832031200,520.5742187500000000,6.8897528648376465,37.1526985168457000,52,102,53,57,65,12854,2146962157,2147518125,2147293979,2147518875,2147092388,2146920457,2147720996,2147122569,3570,-1,8,37029
1355058497,5805,997.0499877929688000,217.2651062011718800,520.6196289062500000,6.8883380889892580,37.2398414611816400,51,105,53,57,65,12849,2146962075,2147518482,2147296137,2147518080,2147090486,2146923712,2147725248,2147124864,231,-1,8,10184
1355062097,5805,993.8300170898438000,218.0269012451172000,520.6143798828125000,6.8884987831115720,37.1971015930175800,52,101,53,57,66,12852,2146964790,2147519689,2147294409,2147522102,2147090523,2146928877,2147723026,2147122532,3104,-1,8,24129
1355063156,5804,993.1300048828125000,217.2778930664062500,521.3259887695312000,6.8663191795349120,37.2518615722656250,52,99,53,56,66,12931,2146962788,2147518482,2147296539,2147523072,2147093732,2146925805,2147721645,2147123181,3292,0,8,1467
